indice_tiempo,isac_nivel_general,isac_variacion_interanual,isac_sin_estacionalidad,isac_ciclo_tendencia
2012-01-01,169.9071198282058,,182.497894251904,176.826150808201
2012-02-01,151.76677881411672,,174.129783114137,175.961638663253
2012-03-01,188.20224034749174,,181.546188158368,174.981858772723
2012-04-01,164.2439778175879,,172.592393442043,173.973060745245
2012-05-01,175.1915703905252,,174.311630172458,173.013751315788
2012-06-01,173.6291980075505,,175.852377736457,172.226698573205
2012-07-01,169.58661304532754,,170.392800634485,171.783686460224
2012-08-01,173.599815220096,,162.21534094343,171.800138561728
2012-09-01,172.57731317472775,,166.875445696722,172.258251928524
2012-10-01,184.77029693994555,,164.837320994484,173.218027366401
2012-11-01,187.28559297570254,,171.437552143995,174.733580634298
2012-12-01,164.21125887571077,,179.198936600467,176.783482809356
2013-01-01,171.4025142536168,0.008801246392281995,180.164551116376,179.255899766931
2013-02-01,161.2459782267199,0.062458987972679125,182.217310024895,181.906185825391
2013-03-01,187.56868374327627,-0.0033663605865992,187.830758356432,184.431149691261
2013-04-01,187.13947299933884,0.13939929783714233,190.252867607957,186.546528682656
2013-05-01,198.65765871647653,0.1339453049803842,196.470501713996,188.073974085548
2013-06-01,180.24141267814022,0.03808238905936861,189.021710216934,188.994486154793
2013-07-01,190.52527163709613,0.12346881758981794,189.158071764307,189.439126193645
2013-08-01,200.38004906275705,0.15426418402985134,191.033659455519,189.601875549447
2013-09-01,196.99687903190647,0.1414992817303562,188.329878077284,189.609437379215
2013-10-01,207.7966534094676,0.12462152657039965,185.439737317066,189.518722845637
2013-11-01,197.52674751074895,0.054682019969229716,186.080019147844,189.31689661586
2013-12-01,185.24797916484115,0.12810766102860696,195.341220070552,188.945502050475
2014-01-01,180.95858868906723,0.055752241891333654,189.048170883115,188.34696736806
2014-02-01,166.9075826197269,0.035111600644367656,186.754730248564,187.532625301698
2014-03-01,181.73905812186075,-0.031079951647976004,183.17178104887,186.603925511743
2014-04-01,181.54026556140022,-0.029919970106779204,184.933416231662,185.721720714828
2014-05-01,182.07592492210608,-0.08346888764070172,183.968017522141,185.062859768173
2014-06-01,178.1721630053467,-0.01148043416908081,185.197408583257,184.726272487714
2014-07-01,184.28719663701196,-0.03274145705965012,181.138442416214,184.761475936774
2014-08-01,185.34558583264192,-0.07502974123639675,181.229896117059,185.132038634588
2014-09-01,204.45468015771309,0.03785745826256843,189.949768710517,185.810085602906
2014-10-01,215.26614712388863,0.03594616944914037,191.510355256098,186.76209563871
2014-11-01,193.10660321113016,-0.02237744687907778,187.760216583626,188.002454687977
2014-12-01,176.04592380324686,-0.04967425503414489,183.971040268182,189.621974954865
2015-01-01,175.15904059935238,-0.032049034708598045,187.463217825005,191.689580758065
2015-02-01,173.09349821800234,0.037061920741906104,195.238398664573,194.185105255583
2015-03-01,190.9442465432248,0.05065057845293637,187.346529322219,196.929788320924
2015-04-01,201.91767729378975,0.11224733900974443,204.827337203499,199.58700956846
2015-05-01,192.36609897641443,0.05651584117290966,200.204083470052,201.780350868737
2015-06-01,203.07055250075916,0.1397434317203934,205.67336360752,203.192613248386
2015-07-01,207.2893243997102,0.12481674355275602,202.761473843386,203.55263153383
2015-08-01,195.76002106125202,0.056189281130297954,192.205327413114,202.736513848158
2015-09-01,218.61777282064668,0.06927252852323278,202.394830725063,200.743071050018
2015-10-01,221.10139979603372,0.0271071543301548,200.76505563045,197.645345382252
2015-11-01,204.41054084766267,0.05853729208924847,196.24516362672,193.627720113442
2015-12-01,179.41746447014893,0.019151483851850913,186.599243514841,188.923513363637
2016-01-01,167.37789793627468,-0.04442330031297544,185.792708550614,183.837425867364
2016-02-01,159.09537255293876,-0.08087031465175926,184.656100129221,178.720257196653
2016-03-01,173.48476812854759,-0.09143757264623759,167.043609152355,173.939943701565
2016-04-01,152.15746659299595,-0.24643810966779697,157.565970821661,169.854989509317
2016-05-01,163.98553258246463,-0.14753413696573162,166.789389794273,166.724031248445
2016-06-01,157.5416459702031,-0.224202406355229,159.446804111433,164.653696180253
2016-07-01,156.23018491172417,-0.24631823001907294,160.988473377693,163.635475505176
2016-08-01,185.65186695757907,-0.05163543633104822,172.332939621163,163.609546220401
2016-09-01,189.06913910092683,-0.13516116891356972,170.45542775214,164.465851442548
2016-10-01,175.24023627046617,-0.20742140740797893,163.104977466283,166.081062112474
2016-11-01,182.7961256065812,-0.10574021844201113,168.360373272727,168.293325624382
2016-12-01,165.43784458664223,-0.07791671744325981,175.540531989357,170.948411861031
2017-01-01,164.3477674171541,-0.018103528342040816,178.539129193224,173.9401395082
2017-02-01,150.10887500238113,-0.05648497128706481,171.652282292786,177.146238834762
2017-03-01,191.90633285422794,0.10618548777740798,184.02699020534,180.432968534988
2017-04-01,167.87461878792874,0.10329530680853409,180.959434868386,183.705424936628
2017-05-01,183.81985749127844,0.12095167540977797,184.458903808769,186.930185930136
2017-06-01,191.407032651808,0.2149614882658399,190.79021674421,190.125888220355
2017-07-01,189.4811596204216,0.2128332289146651,195.450008696168,193.355300104637
2017-08-01,212.87105061867288,0.14661411224759363,195.86668824385,196.623887893345
2017-09-01,212.8037390381855,0.12553397159432195,198.261228214372,199.832581842431
2017-10-01,223.90464257627576,0.27770109959621864,203.805313833503,202.850756412361
2017-11-01,224.43623116994016,0.22779533989127287,207.917151433144,205.414032488252
2017-12-01,191.0016619582444,0.15452218587273747,208.617908267643,207.201846875474
2018-01-01,196.3650690838201,0.19481433894625638,209.768328159169,207.923211987486
2018-02-01,179.09238361226636,0.19308324447455533,201.308715364864,207.463852596108
2018-03-01,207.9385648362735,0.08354196416344252,204.746204122809,205.889206965101
2018-04-01,192.0363059412599,0.14392698150429722,203.339622587707,203.355172491514
2018-05-01,196.3506901109284,0.0681690911453596,195.315077459056,200.116346275898
2018-06-01,191.2562476951397,-0.0007877712463292141,196.101154403357,196.446039647567
2018-07-01,191.06424069971226,0.008354820513353189,189.921700857969,192.595154819161
2018-08-01,212.89653858620207,0.00011973430607454816,194.093303406331,188.820070173009
2018-09-01,204.6396761189696,-0.038364283241052274,197.279935111517,185.432354709282
2018-10-01,209.54385232213303,-0.06413797449175519,188.082484079148,182.750529101929
2018-11-01,188.649705384698,-0.15945075177342943,171.810881261312,181.080817482166
2018-12-01,151.57070366916744,-0.20644301146289037,168.268027864762,180.631388341703
2019-01-01,165.57798428096757,-0.15678493607083852,176.547844574537,181.353959103534
2019-02-01,169.5554276344615,-0.053251600014729235,190.037170117906,182.940499516266
2019-03-01,182.4595909387678,-0.12253125781438058,184.491897090364,184.818610764078
2019-04-01,177.50477872345604,-0.07567072875401365,183.997621459264,186.35519838008
2019-05-01,189.61138258106374,-0.03432281050836792,188.050139423056,186.912918281801
2019-06-01,168.5938720620182,-0.1184922108753544,179.63083640687,186.044586369951
2019-07-01,187.52819012869432,-0.018507129110440987,183.141227996755,183.593218485254
2019-08-01,200.0205807948071,-0.060479883218869046,184.429828487605,179.609504748501
2019-09-01,186.85482704729418,-0.08690811776566719,177.219344368923,174.287106222893
2019-10-01,189.73965044778285,-0.09451101358919871,166.986224785092,167.887105222788
2019-11-01,178.87572441417873,-0.05181021062602767,167.123279578812,160.720704419846
2019-12-01,141.93479403509923,-0.06357369465738216,153.290706651491,153.209935376359
2020-01-01,143.25125275798698,-0.13484118447229435,153.407290989255,145.973682778449
2020-02-01,132.07527706701043,-0.2210495475748094,155.045730063702,139.776921412344
2020-03-01,96.4765665608148,-0.4712442022672752,94.1148042997549,135.506697129166
2020-04-01,42.20767674182651,-0.7622166735714532,47.7798711774628,133.882964844598
2020-05-01,97.31943109007584,-0.4867426745940778,104.275084409821,135.288727675649
2020-06-01,143.80209227376096,-0.14705030191807594,147.096150905315,139.646956511179
2020-07-01,163.33608135785298,-0.12900518452313278,155.003962637467,146.324813491491
2020-08-01,164.7638900131729,-0.1762653155067207,156.044182651941,154.36074057411
2020-09-01,179.66253949163107,-0.03849131258376687,163.51853905774,162.715942940765
2020-10-01,187.94887365939118,-0.009438073613846427,166.733598003806,170.525373730427
2020-11-01,190.04434784453562,0.06243789349803805,182.189274747006,177.196075605134
2020-12-01,180.84539614260402,0.27414421088237545,190.092859582525,182.411623451614
2021-01-01,176.61300396436425,0.23288976929744293,199.417959986813,186.078353864103
2021-02-01,162.01091951566616,0.22665591254801926,189.251986741016,188.257350182045
2021-03-01,192.7749846020268,0.9981534529476593,189.675416945243,189.133313644126
2021-04-01,178.0991369304489,3.219591095236903,180.439868543023,188.984350320704
2021-05-01,165.8545683490291,0.7042287084017093,175.673519503068,188.158786705364
2021-06-01,184.6879835793102,0.2843205593122622,187.100484490461,187.047204496619
2021-07-01,193.70863931116037,0.18595130788502373,187.875232433521,186.113425441803
2021-08-01,202.14216219471132,0.22685961213072844,186.004939639876,185.78203147983
2021-09-01,201.92722587876827,0.12392503440136622,184.959837999255,186.363199371919
2021-10-01,202.65271310760173,0.07823318736592938,186.913950021994,187.887577395662
2021-11-01,204.59340392109982,0.07655611041095484,191.151631584495,190.184618448092
2021-12-01,189.0596062242271,0.0454211733161614,198.171706832641,192.931088017589
2022-01-01,167.88278425176463,-0.049431352825871924,191.679919375664,195.673328519512
2022-02-01,173.75388521974767,0.07248255697324141,201.906986261633,197.991848068318
2022-03-01,196.6671418698731,0.020190157327110825,191.848771325134,199.57822136779
2022-04-01,192.61644631978095,0.08151251959744926,200.715025256927,200.207688315247
2022-05-01,197.87777369679532,0.1930800319010548,201.911149306392,199.819120810124
2022-06-01,196.9770939292199,0.06653984797355478,198.50461735116,198.472336019839
2022-07-01,202.59618205442993,0.04588098277327333,201.848383975746,196.366529627354
2022-08-01,215.79109706802373,0.06752146472127478,196.732278802123,193.859559773241
2022-09-01,210.93375781629518,0.044602860750110974,191.13076650463,191.37091807215
2022-10-01,201.8771088246921,-0.0038272583229507972,187.276771371315,189.379813429706
2022-11-01,201.63006183123682,-0.014484054876988069,187.46471295877,188.24888321154
2022-12-01,169.2168032080945,-0.10495527528285863,181.476866895615,188.084338071422
2023-01-01,172.3393493982936,0.02654569476192208,189.997697421169,188.728180871508
2023-02-01,162.22695549986418,-0.06634055811359446,185.599050377939,189.780985988713
2023-03-01,199.4874498475775,0.014340514388369457,194.371331373733,190.762629075123
2023-04-01,184.83422214775626,-0.040402698319460625,198.863736737223,191.372672499897
2023-05-01,192.23161044067626,-0.02853358995624518,193.922049314917,191.414291188074
2023-06-01,191.43972811813063,-0.028111724569756403,190.061772444389,190.83100238294
2023-07-01,190.8104072768535,-0.058173725970857786,190.674484575696,189.632071082045
2023-08-01,209.25255924716686,-0.030300313171843955,188.568715689252,187.788659040118
2023-09-01,201.38456822727548,-0.04527103526660824,187.509055575174,185.23312762935
2023-10-01,207.89929269638574,0.029830939757133308,186.838931164058,181.899384101945
2023-11-01,197.43472787421692,-0.020807085604781294,182.934546918651,177.885560026155
2023-12-01,148.62105527178247,-0.12171219137726169,165.768260349913,173.479285371652
2024-01-01,134.86650362596117,-0.21743638874792837,148.832379935198,169.152221783148
